NOZ8HR EDDH-ENGM

Flight info

Callsign NOZ8HR
Flight time N/A
Altitude 37000
Route SOKWO1G SOKWO T814 EXNEL M105 AMRAK DCT SABAK/N0445F380 DCT XENTA DCT REGMA DCT LUNIP
Aircraft B38M/M-SDE1FGHILORVWXY/HB1

Departure

Time 2026-04-23 15:39
Airport Hamburg Helmut Schmidt Airport (EDDH)

Arrival

Time N/A
Airport Oslo-Gardermoen International Airport (ENGM)
Time Latitude Longitude Altitude Speed Heading
2026-04-23 15:02 53.63450 10.00308 51 ft 0 kts 86°
2026-04-23 15:30 53.63449 10.00274 50 ft 4 kts 86°
2026-04-23 15:31 53.63447 10.00228 46 ft 4 kts 86°
2026-04-23 15:31 53.63447 10.00186 46 ft 4 kts 108°
2026-04-23 15:31 53.63462 10.00155 48 ft 4 kts 156°
2026-04-23 15:31 53.63478 10.00147 51 ft 0 kts 176°
2026-04-23 15:35 53.63477 10.00147 51 ft 1 kts 176°
2026-04-23 15:35 53.63458 10.00149 47 ft 5 kts 176°
2026-04-23 15:35 53.63400 10.00156 51 ft 11 kts 176°
2026-04-23 15:36 53.63315 10.00166 51 ft 14 kts 176°
2026-04-23 15:36 53.63213 10.00179 50 ft 16 kts 176°
2026-04-23 15:36 53.63096 10.00193 47 ft 18 kts 179°
2026-04-23 15:36 53.62988 10.00097 50 ft 18 kts 212°
2026-04-23 15:37 53.62902 9.99935 49 ft 20 kts 243°
2026-04-23 15:37 53.62875 9.99746 45 ft 9 kts 309°
2026-04-23 15:37 53.62913 9.99707 47 ft 0 kts 332°
2026-04-23 15:37 53.62918 9.99703 47 ft 2 kts 332°
2026-04-23 15:38 53.63080 9.99558 47 ft 58 kts 332°
2026-04-23 15:38 53.63622 9.99092 50 ft 114 kts 333°
2026-04-23 15:38 53.64453 9.98330 72 ft 154 kts 325°
2026-04-23 15:38 53.65400 9.97579 452 ft 154 kts 329°
2026-04-23 15:39 53.66351 9.96761 445 ft 152 kts 328°
2026-04-23 15:39 53.67295 9.95987 533 ft 156 kts 327°
2026-04-23 15:39 53.68331 9.95110 846 ft 172 kts 336°
2026-04-23 15:39 53.69514 9.94884 1585 ft 171 kts 353°
2026-04-23 15:40 53.70745 9.94817 2167 ft 186 kts 355°
2026-04-23 15:40 53.72104 9.94769 2665 ft 205 kts 355°
2026-04-23 15:40 53.73550 9.95031 3325 ft 223 kts 17°
2026-04-23 15:40 53.74935 9.96353 4110 ft 230 kts 28°
2026-04-23 15:41 53.76280 9.97784 4840 ft 234 kts 28°
2026-04-23 15:41 53.77662 9.99267 5081 ft 236 kts 28°
2026-04-23 15:41 53.79027 10.00744 6014 ft 233 kts 28°
2026-04-23 15:41 53.80402 10.02238 6847 ft 236 kts 28°
2026-04-23 15:42 53.81785 10.03748 7656 ft 238 kts 28°
2026-04-23 15:42 53.83189 10.05284 8417 ft 243 kts 28°
2026-04-23 15:42 53.84623 10.06854 9209 ft 246 kts 29°
2026-04-23 15:42 53.86101 10.08474 9803 ft 261 kts 29°
2026-04-23 15:43 53.87676 10.10198 10265 ft 276 kts 28°
2026-04-23 15:43 53.89470 10.11367 10766 ft 283 kts
2026-04-23 15:43 53.91474 10.11131 11161 ft 298 kts 346°
2026-04-23 15:43 53.93512 10.10302 11598 ft 312 kts 346°
2026-04-23 15:44 53.95626 10.09444 12413 ft 313 kts 346°
2026-04-23 15:44 53.97697 10.08215 13158 ft 319 kts 334°
2026-04-23 15:44 53.99708 10.06573 13967 ft 323 kts 336°
2026-04-23 15:44 54.01763 10.04979 14690 ft 328 kts 336°
2026-04-23 15:45 54.03857 10.03381 15395 ft 333 kts 336°
2026-04-23 15:45 54.05991 10.01771 16101 ft 338 kts 336°
2026-04-23 15:45 54.08156 10.00147 16810 ft 342 kts 336°
2026-04-23 15:45 54.10344 9.98511 17540 ft 346 kts 336°
2026-04-23 15:46 54.12565 9.96850 18231 ft 351 kts 336°
2026-04-23 15:46 54.14817 9.95165 18836 ft 355 kts 336°
2026-04-23 15:46 54.17098 9.93457 19363 ft 361 kts 336°
2026-04-23 15:46 54.19399 9.91732 20049 ft 361 kts 336°
2026-04-23 15:47 54.21714 9.89994 20634 ft 365 kts 336°
2026-04-23 15:47 54.24015 9.88266 21232 ft 368 kts 336°
2026-04-23 15:47 54.26369 9.86495 21783 ft 372 kts 336°
2026-04-23 15:47 54.28742 9.84706 22371 ft 375 kts 336°
2026-04-23 15:48 54.31150 9.82890 22869 ft 380 kts 336°
2026-04-23 15:48 54.33568 9.81064 23522 ft 381 kts 336°
2026-04-23 15:48 54.36005 9.79220 24037 ft 383 kts 336°
2026-04-23 15:48 54.38455 9.77365 24500 ft 387 kts 336°
2026-04-23 15:49 54.40927 9.75491 24927 ft 390 kts 336°
2026-04-23 15:49 54.43411 9.73605 25390 ft 392 kts 336°
2026-04-23 15:49 54.45888 9.71721 25821 ft 395 kts 336°
2026-04-23 15:49 54.48408 9.69803 26250 ft 398 kts 336°
2026-04-23 15:50 54.50989 9.68017 26631 ft 401 kts 345°
2026-04-23 15:50 54.53756 9.67449 26990 ft 404 kts
2026-04-23 15:50 54.56557 9.68079 27182 ft 407 kts
2026-04-23 15:50 54.59341 9.68873 27227 ft 405 kts
2026-04-23 15:51 54.62119 9.69704 27231 ft 406 kts
2026-04-23 15:51 54.64901 9.70531 27236 ft 405 kts
2026-04-23 15:51 54.67690 9.71227 27228 ft 405 kts
2026-04-23 15:51 54.70479 9.71938 27230 ft 406 kts
2026-04-23 15:52 54.73270 9.72661 27231 ft 405 kts
2026-04-23 15:52 54.76017 9.73379 27222 ft 405 kts
2026-04-23 15:52 54.78788 9.74103 27224 ft 400 kts
2026-04-23 15:52 54.81533 9.74824 27220 ft 398 kts
2026-04-23 15:53 54.84218 9.75981 27227 ft 400 kts 15°
2026-04-23 15:53 54.86885 9.77354 27213 ft 399 kts 14°
2026-04-23 15:53 54.89552 9.78723 27211 ft 400 kts 15°
2026-04-23 15:53 54.92222 9.80102 27215 ft 401 kts 15°
2026-04-23 15:54 54.94892 9.81483 27210 ft 400 kts 14°
2026-04-23 15:54 54.97527 9.82850 27209 ft 401 kts 15°
2026-04-23 15:54 55.00198 9.84237 27214 ft 401 kts 15°
2026-04-23 15:54 55.02871 9.85626 27211 ft 401 kts 15°
2026-04-23 15:55 55.05542 9.87018 27212 ft 401 kts 15°
2026-04-23 15:55 55.08216 9.88411 27213 ft 400 kts 14°
2026-04-23 15:55 55.10883 9.89805 27209 ft 401 kts 14°
2026-04-23 15:55 55.13558 9.91202 27212 ft 401 kts 14°
2026-04-23 15:56 55.16226 9.92600 27209 ft 401 kts 14°
2026-04-23 15:56 55.18898 9.94001 27223 ft 399 kts 14°
2026-04-23 15:56 55.21516 9.95375 27204 ft 398 kts 14°
2026-04-23 15:56 55.24165 9.96770 27201 ft 398 kts 14°
2026-04-23 15:57 55.26813 9.98163 27195 ft 398 kts 14°
2026-04-23 15:57 55.29465 9.99560 27190 ft 398 kts 14°
2026-04-23 15:57 55.32116 10.00960 27190 ft 398 kts 14°
2026-04-23 15:57 55.34762 10.02359 27189 ft 398 kts 14°
2026-04-23 15:58 55.37413 10.03763 27190 ft 398 kts 14°
2026-04-23 15:58 55.40066 10.05169 27185 ft 398 kts 14°
2026-04-23 15:58 55.42713 10.06574 27185 ft 398 kts 14°
2026-04-23 15:58 55.45362 10.07983 27185 ft 398 kts 14°
2026-04-23 15:59 55.47974 10.09374 27183 ft 398 kts 14°
2026-04-23 15:59 55.50624 10.10786 27184 ft 398 kts 14°
2026-04-23 15:59 55.53269 10.12199 27186 ft 398 kts 14°
2026-04-23 15:59 55.55921 10.13616 27183 ft 398 kts 14°
2026-04-23 16:00 55.58568 10.15033 27175 ft 398 kts 14°
2026-04-23 16:00 55.61215 10.16452 27178 ft 398 kts 14°
2026-04-23 16:00 55.63863 10.17875 27178 ft 398 kts 14°
2026-04-23 16:00 55.66510 10.19298 27178 ft 398 kts 14°
2026-04-23 16:01 55.69155 10.20722 27173 ft 398 kts 14°
2026-04-23 16:01 55.71767 10.22131 27171 ft 398 kts 14°
2026-04-23 16:01 55.74416 10.23561 27171 ft 398 kts 14°
2026-04-23 16:01 55.77059 10.24990 27172 ft 398 kts 14°
2026-04-23 16:02 55.79705 10.26422 27169 ft 398 kts 14°
2026-04-23 16:02 55.82353 10.27859 27170 ft 398 kts 14°
2026-04-23 16:02 55.84995 10.29293 27171 ft 398 kts 14°
2026-04-23 16:02 55.87640 10.30731 27177 ft 398 kts 14°
2026-04-23 16:03 55.90286 10.32172 27171 ft 397 kts 14°
2026-04-23 16:03 55.92927 10.33613 27170 ft 397 kts 14°
2026-04-23 16:03 55.95536 10.35038 27170 ft 397 kts 14°
2026-04-23 16:03 55.98178 10.36483 27170 ft 397 kts 14°
2026-04-23 16:04 56.00816 10.37928 27169 ft 397 kts 14°
2026-04-23 16:04 56.03461 10.39378 27169 ft 397 kts 14°
2026-04-23 16:04 56.06098 10.40827 27170 ft 397 kts 14°
2026-04-23 16:04 56.08733 10.42276 27171 ft 397 kts 14°
2026-04-23 16:05 56.10484 10.43241 27172 ft 397 kts 14°
2026-04-23 16:05 56.14018 10.45190 27176 ft 397 kts 14°
2026-04-23 16:05 56.16651 10.46644 27173 ft 396 kts 14°
2026-04-23 16:05 56.19289 10.48104 27169 ft 396 kts 14°
2026-04-23 16:06 56.21928 10.49565 27167 ft 396 kts 14°
2026-04-23 16:06 56.24563 10.51028 27171 ft 396 kts 14°
2026-04-23 16:06 56.27159 10.52470 27157 ft 396 kts 14°
2026-04-23 16:06 56.29794 10.53936 27158 ft 397 kts 14°
2026-04-23 16:07 56.32433 10.55407 27154 ft 396 kts 14°
2026-04-23 16:07 56.35065 10.56875 27157 ft 396 kts 14°
2026-04-23 16:07 56.37700 10.58348 27156 ft 396 kts 14°
2026-04-23 16:07 56.40334 10.59822 27173 ft 396 kts 14°
2026-04-23 16:08 56.42959 10.61293 27157 ft 395 kts 14°
2026-04-23 16:08 56.45584 10.62767 27160 ft 395 kts 14°
2026-04-23 16:08 56.48210 10.64243 27159 ft 395 kts 14°
2026-04-23 16:08 56.50799 10.65700 27159 ft 395 kts 14°
2026-04-23 16:09 56.53424 10.67180 27168 ft 395 kts 14°
2026-04-23 16:09 56.56048 10.68660 27162 ft 395 kts 14°
2026-04-23 16:09 56.58671 10.70144 27160 ft 395 kts 14°
2026-04-23 16:09 56.61295 10.71629 27165 ft 395 kts 14°
2026-04-23 16:10 56.63918 10.73117 27165 ft 395 kts 14°
2026-04-23 16:10 56.66538 10.74604 27175 ft 394 kts 14°
2026-04-23 16:10 56.69155 10.76093 27165 ft 394 kts 14°
2026-04-23 16:10 56.71773 10.77584 27163 ft 394 kts 14°
2026-04-23 16:11 56.74348 10.79052 27159 ft 394 kts 14°
2026-04-23 16:11 56.76963 10.80546 27169 ft 394 kts 14°
2026-04-23 16:11 56.79579 10.82042 27171 ft 394 kts 14°
2026-04-23 16:11 56.82192 10.83539 27159 ft 394 kts 14°
2026-04-23 16:12 56.84807 10.85039 27160 ft 394 kts 14°
2026-04-23 16:12 56.87421 10.86541 27164 ft 394 kts 14°
2026-04-23 16:12 56.90036 10.88045 27158 ft 394 kts 14°
2026-04-23 16:12 56.92646 10.89548 27169 ft 393 kts 14°
2026-04-23 16:13 56.95247 10.91050 27161 ft 392 kts 14°
2026-04-23 16:13 57.00415 10.94038 27161 ft 392 kts 14°
2026-04-23 16:13 57.03014 10.95544 27157 ft 392 kts 14°
2026-04-23 16:14 57.05616 10.97055 27157 ft 392 kts 14°
2026-04-23 16:14 57.08214 10.98565 27157 ft 392 kts 14°
2026-04-23 16:14 57.10817 11.00080 27157 ft 392 kts 14°
2026-04-23 16:14 57.13416 11.01595 27155 ft 392 kts 14°
2026-04-23 16:15 57.16014 11.03112 27157 ft 392 kts 14°
2026-04-23 16:15 57.18611 11.04630 27168 ft 390 kts 14°
2026-04-23 16:15 57.21158 11.06122 27158 ft 389 kts 14°
2026-04-23 16:15 57.23736 11.07633 27157 ft 389 kts 14°
2026-04-23 16:16 57.26309 11.09145 27157 ft 389 kts 14°
2026-04-23 16:16 57.28887 11.10661 27157 ft 389 kts 14°
2026-04-23 16:16 57.31465 11.12179 27157 ft 389 kts 14°
2026-04-23 16:16 57.34039 11.13698 27154 ft 389 kts 14°
2026-04-23 16:17 57.36616 11.15220 27154 ft 389 kts 14°
2026-04-23 16:17 57.39155 11.16722 27154 ft 389 kts 14°
2026-04-23 16:17 57.41733 11.18249 27153 ft 389 kts 14°
2026-04-23 16:17 57.44305 11.19774 27169 ft 388 kts 14°
2026-04-23 16:18 57.46872 11.21301 27153 ft 387 kts 14°
2026-04-23 16:18 57.49431 11.22824 27152 ft 387 kts 14°
2026-04-23 16:18 57.51990 11.24349 27151 ft 386 kts 14°
2026-04-23 16:18 57.54551 11.25877 27151 ft 386 kts 14°
2026-04-23 16:19 57.57112 11.27408 27151 ft 386 kts 14°
2026-04-23 16:19 57.59668 11.28938 27151 ft 386 kts 14°
2026-04-23 16:19 57.62230 11.30474 27151 ft 386 kts 14°
2026-04-23 16:19 57.64754 11.31989 27151 ft 386 kts 14°
2026-04-23 16:20 57.67310 11.33527 27147 ft 386 kts 14°
2026-04-23 16:20 57.69868 11.35067 27162 ft 386 kts 14°
2026-04-23 16:20 57.72419 11.36605 27149 ft 385 kts 14°
2026-04-23 16:20 57.74962 11.38141 27143 ft 384 kts 14°
2026-04-23 16:21 57.77507 11.39681 27143 ft 384 kts 14°
2026-04-23 16:21 57.80052 11.41222 27144 ft 384 kts 14°
2026-04-23 16:21 57.82598 11.42767 27141 ft 384 kts 14°
2026-04-23 16:21 57.85138 11.44309 27140 ft 384 kts 14°
2026-04-23 16:22 57.87681 11.45856 27140 ft 384 kts 14°
2026-04-23 16:22 57.90190 11.47384 27141 ft 384 kts 14°
2026-04-23 16:22 57.92733 11.48935 27141 ft 384 kts 14°
2026-04-23 16:22 57.95275 11.50487 27142 ft 384 kts 14°
2026-04-23 16:23 57.97811 11.52038 27154 ft 382 kts 14°
2026-04-23 16:23 58.00331 11.53582 27143 ft 381 kts 14°
2026-04-23 16:23 58.02852 11.55128 27143 ft 380 kts 14°
2026-04-23 16:23 58.05365 11.56672 27147 ft 380 kts 14°
2026-04-23 16:24 58.07881 11.58219 27142 ft 380 kts 14°
2026-04-23 16:24 58.10403 11.59773 27147 ft 380 kts 14°
2026-04-23 16:24 58.12881 11.61303 27145 ft 380 kts 14°
2026-04-23 16:24 58.15398 11.62855 27146 ft 380 kts 13°
2026-04-23 16:25 58.17966 11.63695 27119 ft 372 kts 356°
2026-04-23 16:25 58.20529 11.63172 27146 ft 371 kts 351°
2026-04-23 16:25 58.23089 11.62495 27132 ft 372 kts 350°
2026-04-23 16:25 58.25644 11.61771 27143 ft 372 kts 349°
2026-04-23 16:26 58.28203 11.61017 27141 ft 371 kts 349°
2026-04-23 16:26 58.30752 11.60246 27138 ft 371 kts 349°
2026-04-23 16:26 58.33301 11.59465 27139 ft 371 kts 349°
2026-04-23 16:26 58.35846 11.58680 27136 ft 381 kts 349°
2026-04-23 16:27 58.38499 11.57859 27139 ft 392 kts 349°
2026-04-23 16:27 58.41229 11.57012 27129 ft 403 kts 349°
2026-04-23 16:27 58.44031 11.56141 27130 ft 412 kts 349°
2026-04-23 16:27 58.46896 11.55250 26893 ft 422 kts 349°
2026-04-23 16:28 58.49808 11.54343 26667 ft 426 kts 349°
2026-04-23 16:28 58.52741 11.53428 26444 ft 427 kts 349°
2026-04-23 16:28 58.55673 11.52504 26213 ft 428 kts 349°
2026-04-23 16:28 58.58576 11.51578 25993 ft 429 kts 349°
2026-04-23 16:29 58.61525 11.50655 25768 ft 429 kts 349°
2026-04-23 16:29 58.64470 11.49737 25367 ft 427 kts 349°
2026-04-23 16:29 58.67386 11.48829 24784 ft 423 kts 349°
2026-04-23 16:29 58.70283 11.47918 24244 ft 421 kts 349°
2026-04-23 16:30 58.73166 11.47006 23783 ft 418 kts 349°
2026-04-23 16:30 58.76031 11.46099 23296 ft 416 kts 349°
2026-04-23 16:30 58.78881 11.45196 22834 ft 414 kts 349°
2026-04-23 16:30 58.81706 11.44299 22400 ft 411 kts 349°
2026-04-23 16:31 58.84484 11.43415 21945 ft 409 kts 349°
2026-04-23 16:31 58.87285 11.42522 21524 ft 407 kts 349°
2026-04-23 16:31 58.90071 11.41634 21101 ft 404 kts 349°
2026-04-23 16:31 58.92833 11.40751 20707 ft 401 kts 349°
2026-04-23 16:32 58.95560 11.39878 20064 ft 397 kts 349°
2026-04-23 16:32 58.98278 11.39006 19433 ft 394 kts 349°
2026-04-23 16:32 59.00966 11.38143 18878 ft 390 kts 349°
2026-04-23 16:32 59.03627 11.37287 18289 ft 386 kts 349°
2026-04-23 16:33 59.06271 11.36435 17636 ft 383 kts 349°
2026-04-23 16:33 59.08863 11.35599 16756 ft 386 kts 349°
2026-04-23 16:33 59.11500 11.34636 16143 ft 382 kts 346°
2026-04-23 16:33 59.14060 11.33462 15591 ft 377 kts 346°
2026-04-23 16:34 59.16610 11.32316 14986 ft 374 kts 346°
2026-04-23 16:34 59.19153 11.31369 14403 ft 372 kts 353°
2026-04-23 16:34 59.21712 11.30915 13812 ft 369 kts 353°
2026-04-23 16:34 59.24259 11.30420 13177 ft 366 kts 353°
2026-04-23 16:35 59.26786 11.29904 12542 ft 364 kts 353°
2026-04-23 16:35 59.29280 11.29380 12232 ft 358 kts 353°
2026-04-23 16:35 59.31743 11.28854 12132 ft 362 kts 353°
2026-04-23 16:35 59.34246 11.28318 12114 ft 363 kts 353°
2026-04-23 16:36 59.36697 11.27790 12113 ft 346 kts 353°
2026-04-23 16:36 59.39042 11.27285 12124 ft 331 kts 353°
2026-04-23 16:36 59.41324 11.26793 12135 ft 329 kts 353°
2026-04-23 16:36 59.43593 11.26302 12130 ft 328 kts 353°
2026-04-23 16:37 59.45853 11.25796 11995 ft 324 kts 352°
2026-04-23 16:37 59.48093 11.25261 11439 ft 325 kts 352°
2026-04-23 16:37 59.50294 11.24737 11197 ft 321 kts 352°
2026-04-23 16:37 59.52527 11.24207 11122 ft 324 kts 352°
2026-04-23 16:38 59.54765 11.23675 11103 ft 324 kts 352°
2026-04-23 16:38 59.57005 11.23142 11117 ft 324 kts 352°
2026-04-23 16:38 59.59246 11.22607 11109 ft 324 kts 352°
2026-04-23 16:38 59.61483 11.22073 11108 ft 324 kts 352°
2026-04-23 16:39 59.63686 11.21462 11023 ft 314 kts 349°
2026-04-23 16:39 59.65801 11.20710 10691 ft 302 kts 349°
2026-04-23 16:39 59.67818 11.20004 10365 ft 288 kts 350°
2026-04-23 16:39 59.69745 11.19335 10057 ft 275 kts 350°
2026-04-23 16:40 59.71585 11.18697 9719 ft 262 kts 350°
2026-04-23 16:40 59.73345 11.18088 9405 ft 251 kts 350°
2026-04-23 16:40 59.75000 11.17515 9148 ft 239 kts 350°
2026-04-23 16:40 59.76602 11.16960 8874 ft 228 kts 350°
2026-04-23 16:41 59.78132 11.16431 8624 ft 220 kts 350°
2026-04-23 16:41 59.79642 11.15907 8379 ft 221 kts 350°
2026-04-23 16:41 59.81156 11.15381 8151 ft 221 kts 350°
2026-04-23 16:41 59.82662 11.14858 7894 ft 220 kts 350°
2026-04-23 16:42 59.84166 11.14335 7666 ft 219 kts 350°
2026-04-23 16:42 59.85625 11.13827 7395 ft 219 kts 350°
2026-04-23 16:42 59.86499 11.13524 7218 ft 218 kts 350°
2026-04-23 16:42 59.87799 11.13069 7009 ft 217 kts 350°
2026-04-23 16:43 59.89287 11.12551 6750 ft 217 kts 350°
2026-04-23 16:43 59.90757 11.12038 6494 ft 211 kts 350°
2026-04-23 16:43 59.92146 11.11355 6206 ft 202 kts 333°
2026-04-23 16:43 59.93204 11.09596 5962 ft 195 kts 317°
2026-04-23 16:44 59.94103 11.07740 5802 ft 178 kts 317°
2026-04-23 16:44 59.94930 11.06007 5578 ft 167 kts 317°
2026-04-23 16:44 59.95706 11.04359 5363 ft 161 kts 316°
2026-04-23 16:44 59.96472 11.02715 5200 ft 163 kts 316°
2026-04-23 16:45 59.97243 11.01046 5040 ft 163 kts 316°
2026-04-23 16:45 59.98012 10.99375 4895 ft 163 kts 315°
2026-04-23 16:45 59.98813 10.97819 4691 ft 162 kts 331°
2026-04-23 16:45 59.99906 10.97319 4410 ft 162 kts